Regional Weather Roundup
Issued by NWS Jackson, KY

Home | Current Version | Previous Version | Graphics & Text | Print | Product List | Glossary Off
Versions: 1 2 3 4 5 6 7 8 9 10 11 12 13 14 15 16 17 18 19 20 21 22 23 24 25 26 27 28 29 30 31 32 33 34 35 36 37 38 39 40 41 42 43 44 45 46 47 48 49 50

000
ASUS43 KJKL 300511
RWRJKL

EAST KENTUCKY HOURLY WEATHER ROUNDUP
NATIONAL WEATHER SERVICE JACKSON KY
100 AM EDT SAT AUG 30 2014

NOTE: "FAIR" INDICATES FEW OR NO CLOUDS BELOW 12,000 FEET WITH
NO SIGNIFICANT WEATHER AND/OR OBSTRUCTIONS TO VISIBILITY.

* THESE REPORTS ARE NOT UNDER NWS QUALITY CONTROL AND MAY NOT
  REPORT WEATHER SUCH AS PRECIPITATION AND FOG.

KYZ079-080-083-085-087-088-110-112-115-119-120-300600
...EASTERN KENTUCKY...

CITY           SKY/WX    TMP DP  RH WIND       PRES   REMARKS
JACKSON        CLOUDY    74  67  78 CALM      30.12R
LONDON         CLEAR     73  70  90 CALM      30.12R FOG
SOMERSET*      CLEAR     68  68 100 CALM      30.11R
MONTICELLO*    CLEAR     67  67 100 CALM      30.11S FOG
WILLIAMSBURG*  CLEAR     68  68 100 W3        30.12R
MIDDLESBORO*   PTCLDY    69  66  91 CALM      30.14R
HARLAN APT*    PTCLDY    72  70  94 MISG      30.16R
BLACK MTN*       N/A     66  64  94 W1          N/A
PIKEVILLE APT* LGT RAIN  72  70  94 SE7       30.14R
BIG SANDY*     CLOUDY    75  71  87 S5        30.12R
MOREHEAD APT*  PTCLDY    72  70  94 S5        30.12R
$$

KYZ035-036-041-042-044-050-067-078-099-300600
...CENTRAL KENTUCKY...

CITY           SKY/WX    TMP DP  RH WIND       PRES   REMARKS
MT STERLING*   PTCLDY    70  68  94 SW5       30.11R
FLEMING/MASON* CLEAR     72  68  88 S7        30.10R
DANVILLE*      CLEAR     68  64  88 CALM      30.10R
RICHMOND*      CLEAR     72  68  88 SE3       30.09R
LEXINGTON      CLEAR     76  71  85 SE7       30.09R
FRANKFORT      CLEAR     71  66  84 SE3       30.06R
$$

KYZ091>093-OHZ055-061-077-WVZ005-015-034-035-042-300600
...SOUTHERN OHIO/WEST VIRGINIA...

CITY           SKY/WX    TMP DP  RH WIND       PRES   REMARKS
COVINGTON      PTCLDY    74  68  81 S6        30.06R
COLUMBUS       MOCLDY    77  59  53 SE7       30.07R
DAYTON         PTCLDY    73  68  84 SE8       30.07R
WILMINGTON     MOCLDY    71  64  78 S5        30.08R
HUNTINGTON     PTCLDY    72  71  97 CALM      30.08R
CHARLESTON     PTCLDY    71  71 100 CALM      30.11R
PINEVILLE*     PTCLDY    72  72  99 MISG      30.23R
BECKLEY        PTCLDY    69  64  84 SE13      30.22S
BLUEFIELD      PTCLDY    72  64  76 S7        30.26R
$$

VAZ002-007-008-TNZ017-027-036-066-071-300600
...SOUTHWEST VIRGINIA/EAST TENNESSEE...

CITY           SKY/WX    TMP DP  RH WIND       PRES   REMARKS
WISE*          PTCLDY    70  68  94 S7        30.24R
JONESVILLE*      N/A     72  70  94 CALM      30.17R
ABINGDON*      CLEAR     70  68  96 CALM      30.22R FOG
BRISTOL        CLEAR     68  66  93 CALM      30.18R FOG
KNOXVILLE      MOCLDY    73  66  78 W10       30.10R
OAK RIDGE      PTCLDY    73  68  84 CALM      30.13R
CROSSVILLE     CLEAR     68  62  81 CALM      30.16R
NASHVILLE      PTCLDY    73  65  75 S3        30.06R
$$

...KEY TO REMARKS...
VSB - VISIBILITY IN MILES
WCI - WIND CHILL INDEX
HX  - HEAT INDEX

$$


USA.gov is the U.S. government's official web portal to all federal, state and local government web resources and services.